Regional Weather Roundup
Issued by NWS

Home | Current Version | Previous Version | Text Only | Print | Product List | Glossary Off
Versions: 1 2 3 4 5 6 7 8 9 10 11 12 13 14 15 16 17 18 19 20 21 22 23 24 25 26 27

000
ASUS45 KBOU 301107
RWRCO

WEATHER ROUNDUP FOR COLORADO
NATIONAL WEATHER SERVICE DENVER/BOULDER CO
500 AM MDT SAT APR 30 2016

NOTE: "FAIR" INDICATES FEW OR NO CLOUDS BELOW 12000 FEET WITH NO
SIGNIFICANT WEATHER AND/OR OBSTRUCTIONS TO VISIBILITY.

COZ001>005-013-030-031-301200-
...NORTHWEST COLORADO...

CITY           SKY/WX    TMP DP  RH WIND       PRES   REMARKS
CRAIG          CLOUDY    34  31  88 SW10      29.86S WCI  26
HAYDEN         CLOUDY    30  28  93 CALM      29.86S
MEEKER         CLOUDY    34  31  88 W3        29.88S
MOUNT WERNER   NOT AVBL
STEAMBOAT SPGS CLOUDY    30  30  98 S3        29.86S
WALDEN         CLOUDY    27  21  80 N12       29.52F WCI  16
$$

COZ006>008-011-301200-
...WEST CENTRAL VALLEYS...

CITY           SKY/WX    TMP DP  RH WIND       PRES   REMARKS
GRAND JUNCTION CLOUDY    40  40 100 NW5       29.84R
MONTROSE       CLOUDY    41  35  79 S3        29.86R
EAGLE          FAIR      36  36 100 CALM      29.86S
RIFLE          CLOUDY    41  32  70 NW13      29.86R
DELTA          NOT AVBL
NUCLA          NOT AVBL
$$

COZ017>023-064>068-301200-
...SOUTHWEST COLORADO...

CITY           SKY/WX    TMP DP  RH WIND       PRES   REMARKS
DURANGO        FAIR      26  23  88 S3        29.85R
CORTEZ         FAIR      30  28  92 NE5       29.86R WCI  25
PAGOSA SPRINGS CLOUDY    33  33 100 CALM      29.86S
TELLURIDE      CLOUDY    31  30  99 CALM      29.89S
WOLF CREEK PAS FOG       19  19 100 SW13      29.90F VSB 3/4 WCI   7
$$

COZ009-010-012-014-032>034-037-058>063-301200-
...CENTRAL COLORADO...

CITY           SKY/WX    TMP DP  RH WIND       PRES   REMARKS
ASPEN          CLOUDY    33  30  88 N6        29.84S WCI  28
BUENA VISTA    FLURRIES  24  22  93 CALM      29.83S
COPPER MTN     NOT AVBL
BERTHOUD PASS  HVY SNOW  14   3  62 N17G24    29.82S VSB 1/4 WCI  -3
COTTONWOOD PAS CLOUDY    28  27  93 CALM      29.82S
GUNNISON       CLOUDY    34  28  80 N6        29.84S WCI  29
KREMMLING      CLOUDY    32  25  74 NW6       29.86R WCI  26
LEADVILLE      NOT AVBL
MONARCH PASS   CLOUDY    21  19  93 MISG      29.94S
SALIDA         CLOUDY    31  29  93 CALM      29.91R
SUNLIGHT       FOG      N/A N/A N/A CALM      29.91S VSB 1/2
WILKERSON PASS CLOUDY   N/A N/A N/A NW3       29.85R
$$

COZ069>075-301200-
...SAN LUIS VALLEY/SANGRE DE CRISTO MOUNTAINS...

CITY           SKY/WX    TMP DP  RH WIND       PRES   REMARKS
ALAMOSA        CLOUDY    33  30  88 SW3       29.82S
LA VETA PASS   FOG       27  25  93 MISG      29.82S VSB 1/2
SAGUACHE       MIX PCPN  32  32 100 CALM      29.84S
$$

COZ035-036-038>040-301200-
...NORTHERN COLORADO FRONT RANGE...

CITY           SKY/WX    TMP DP  RH WIND       PRES   REMARKS
DENVER INTL AP LGT SNOW  32  29  88 N12       29.87S VSB 1   WCI  23
DMNS CITY PARK   N/A     33  32  99 N10       29.89S WCI  24
AURORA         FLURRIES  31  31 100 N10       29.87F WCI  22
FRONT RANGE AP NOT AVBL
ERIE MUNI ARPT DRIZZLE   33  33 100 N5        29.89S WCI  29
BOULDER MUN AP FLURRIES  34  34 100 N6        29.89S WCI  29
CENTENNIAL     LGT SNOW  31  30  96 N10       29.87R FOG     WCI  22
BROOMFIELD     CLOUDY    32  32 100 N6        29.89S WCI  26
FORT COLLINS   FAIR      34  30  86 N12       29.90F WCI  25
LONGMONT       MIX PCPN  36  34  92 N6        29.91S
$$

COZ041-046-047-076>085-087-088-301200-
...PIKES PEAK/PALMER DIVIDE AND SOUTHERN FOOTHILLS...

CITY           SKY/WX    TMP DP  RH WIND       PRES   REMARKS
COLO. SPRINGS  CLOUDY    33  26  75 N10       29.84R WCI  25
A. F. ACADEMY  FAIR      30  28  93 N15       29.82R WCI  19
SCHRIEVER AFB  NOT AVBL
ELLICOTT       NOT AVBL
FALCON         CLOUDY    29  27  90 N14G21    29.83R WCI  19
FORT CARSON    NOT AVBL
LIMON          LGT SNOW  30  29  96 NW17      29.82S FOG     WCI  18
MONUMENT HILL  LGT SNOW  27  27 100 N14       29.85S WCI  15
TRINIDAD       MOCLDY    25  24  96 W3        29.84S
$$

COZ042>045-048>051-090-091-301200-
...NORTHEAST COLORADO...

CITY           SKY/WX    TMP DP  RH WIND       PRES   REMARKS
GREELEY ARPT   FAIR      34  30  86 N9        29.90R WCI  26
AKRON          SNOW      30  29  96 N14       29.83S VSB 1/2 WCI  19
BURLINGTON     CLOUDY    32  29  88 N14       29.80S WCI  22
WRAY           NOT AVBL
STERLING       NOT AVBL
HOLYOKE        NOT AVBL
FORT MORGAN    CLOUDY    32  31  96 N10       29.87S WCI  24
$$

COZ086-089-092>099-301200-
...SOUTHEAST COLORADO...

CITY           SKY/WX    TMP DP  RH WIND       PRES   REMARKS
PUEBLO         CLOUDY    37  33  85 W5        29.84F
LA JUNTA       MOCLDY    37  35  92 W8        29.84S
LAMAR          FAIR      32  31  96 W8        29.82S WCI  25
SPRINGFIELD      N/A     34  32  92 NW20      29.81R WCI  23
$$




USA.gov is the U.S. government's official web portal to all federal, state and local government web resources and services.